Oceana NAS, VA

4:51 PM EST on February 21, 2018 (GMT -0500)
Oceana Naval Air Station

Weather History for KNTU - January, 2013

Change the Weather History Date:

Saturday, January 5, 2013

  Actual Average Record
Temperature  
Mean Temperature 38 °F -  
Max Temperature 46 °F 50 °F 75 °F (2004)
Min Temperature 30 °F 32 °F 12 °F (2018)
Degree Days  
Heating Degree Days 27    
Moisture  
Dew Point 27 °F    
Average Humidity 63    
Maximum Humidity 76    
Minimum Humidity 46    
Precipitation  
Precipitation 0.00 in - - ()
Sea Level Pressure  
Sea Level Pressure 30.31 in    
Wind  
Wind Speed 5 mph (South)    
Max Wind Speed 9 mph    
Max Gust Speed -    
Visibility 10 miles    
Events      
Averages and records for this station are not official NWS values.
T = Trace of Precipitation, MM = Missing Value Source: NWS Daily Summary

Daily Weather History Graph

Daily Weather History Graph

Search for Another Location

Airport or City:

Trip Planner

Search our weather history database for the weather conditions in past years. The results will help you decide how hot, cold, wet, or windy it might be!

Date:

Astronomy

Jan. 05, 2013 Rise Set
Actual Time 7:17 AM EST 5:02 PM EST
Civil Twilight 6:48 AM EST 5:30 PM EST
Nautical Twilight 6:16 AM EST 6:03 PM EST
Astronomical Twilight 5:45 AM EST 6:34 PM EST
Moon 12:26 AM EST (1/5) 11:46 AM EST (1/5)
Length of Visible Light 10h 42m
Length of Day
9h 44m
Last Quarter, 44% of the Moon is Illuminated
Jan 5
Last Quarter
Jan 11
New
Jan 18
First Quarter
Jan 26
Full
Feb 3
Last Quarter

Hourly Weather History & Observations

Time (EST) Temp. Windchill Dew Point Humidity Pressure Visibility Wind Dir Wind Speed Gust Speed Precip Events Conditions
12:56 AM 37.0 °F 31.6 °F 24.1 °F 59% 30.22 in 10.0 mi West 6.9 mph - N/A   Clear
1:56 AM 36.0 °F 29.0 °F 23.0 °F 59% 30.24 in 10.0 mi WNW 9.2 mph - N/A   Clear
2:56 AM 34.0 °F 28.8 °F 21.9 °F 61% 30.25 in 10.0 mi West 5.8 mph - N/A   Clear
3:56 AM 32.0 °F 27.5 °F 21.0 °F 64% 30.25 in 10.0 mi West 4.6 mph - N/A   Clear
4:56 AM 30.9 °F 24.3 °F 21.0 °F 67% 30.27 in 10.0 mi WSW 6.9 mph - N/A   Clear
5:56 AM 33.1 °F - 21.0 °F 61% 30.30 in 10.0 mi Calm Calm - N/A   Clear
6:56 AM 30.9 °F 26.2 °F 21.9 °F 69% 30.32 in 10.0 mi WNW 4.6 mph - N/A   Clear
7:56 AM 32.0 °F 27.5 °F 23.0 °F 69% 30.34 in 10.0 mi WSW 4.6 mph - N/A   Partly Cloudy
8:56 AM 37.0 °F 34.5 °F 27.0 °F 67% 30.36 in 10.0 mi NW 3.5 mph - N/A   Scattered Clouds
9:56 AM 44.1 °F 39.5 °F 27.0 °F 51% 30.37 in 10.0 mi NNE 8.1 mph - N/A   Scattered Clouds
10:56 AM 46.0 °F 42.5 °F 26.1 °F 46% 30.39 in 10.0 mi North 6.9 mph - N/A   Mostly Cloudy
11:56 AM 46.0 °F 43.9 °F 28.0 °F 50% 30.37 in 10.0 mi ENE 4.6 mph - N/A   Mostly Cloudy
12:56 PM 45.0 °F 41.2 °F 28.0 °F 52% 30.35 in 10.0 mi NE 6.9 mph - N/A   Overcast
1:56 PM 45.0 °F 41.8 °F 28.0 °F 52% 30.32 in 10.0 mi East 5.8 mph - N/A   Mostly Cloudy
2:56 PM 46.0 °F 44.8 °F 28.0 °F 50% 30.35 in 10.0 mi East 3.5 mph - N/A   Mostly Cloudy
3:56 PM 43.0 °F 38.2 °F 28.9 °F 58% 30.33 in 10.0 mi ESE 8.1 mph - N/A   Mostly Cloudy
4:56 PM 39.9 °F 37.8 °F 28.9 °F 65% 30.33 in 10.0 mi SE 3.5 mph - N/A   Mostly Cloudy
5:56 PM 39.0 °F - 28.9 °F 67% 30.34 in 10.0 mi Calm Calm - N/A   Mostly Cloudy
6:56 PM 37.9 °F 35.5 °F 30.0 °F 73% 30.32 in 10.0 mi SE 3.5 mph - N/A   Mostly Cloudy
7:56 PM 39.0 °F 35.7 °F 30.0 °F 70% 30.32 in 10.0 mi SSE 4.6 mph - N/A   Mostly Cloudy
8:56 PM 39.9 °F 36.7 °F 30.9 °F 70% 30.30 in 10.0 mi SE 4.6 mph - N/A   Mostly Cloudy
9:56 PM 39.9 °F 37.8 °F 32.0 °F 73% 30.30 in 10.0 mi South 3.5 mph - N/A   Overcast
10:56 PM 39.0 °F 36.8 °F 32.0 °F 76% 30.30 in 10.0 mi SSW 3.5 mph - N/A   Overcast
11:56 PM 39.0 °F - 32.0 °F 76% 30.27 in 10.0 mi Calm Calm - N/A   Overcast